Time,TemperatureF,DewpointF,PressureIn,WindDirection,WindDirectionDegrees,WindSpeedMPH,WindSpeedGustMPH,Humidity,HourlyPrecipIn,Conditions,Clouds,dailyrainin,SolarRadiationWatts/m^2,SoftwareType,DateUTC
2013-02-28 00:01:00,34.3,8.1,30.20,NNW,346,0.0,0.0,33,0.00,,,0.00,0,Wunderground v.1.15,2013-02-28 07:01:00,
2013-02-28 00:06:00,32.9,6.9,30.20,NNW,347,0.0,0.0,33,0.00,,,0.00,0,Wunderground v.1.15,2013-02-28 07:06:00,
2013-02-28 00:11:00,32.8,6.8,30.20,NNW,347,0.0,0.0,33,0.00,,,0.00,0,Wunderground v.1.15,2013-02-28 07:11:00,
2013-02-28 00:16:00,31.8,7.2,30.20,NNW,347,0.0,0.0,35,0.00,,,0.00,0,Wunderground v.1.15,2013-02-28 07:16:00,
2013-02-28 00:26:00,32.4,7.7,30.21,NNW,347,0.0,0.0,35,0.00,,,0.00,0,Wunderground v.1.15,2013-02-28 07:26:00,
2013-02-28 00:31:00,33.0,7.6,30.21,NNW,346,0.0,0.0,34,0.00,,,0.00,0,Wunderground v.1.15,2013-02-28 07:31:00,
2013-02-28 00:36:00,32.6,7.3,30.21,NNW,347,0.0,0.0,34,0.00,,,0.00,0,Wunderground v.1.15,2013-02-28 07:36:00,
2013-02-28 00:41:00,32.0,7.4,30.21,NNW,347,0.0,0.0,35,0.00,,,0.00,0,Wunderground v.1.15,2013-02-28 07:41:00,
2013-02-28 00:46:00,31.4,7.5,30.22,NNW,346,0.0,0.0,36,0.00,,,0.00,0,Wunderground v.1.15,2013-02-28 07:46:00,
2013-02-28 00:56:00,31.5,7.6,30.21,NNW,347,0.0,0.0,36,0.00,,,0.00,0,Wunderground v.1.15,2013-02-28 07:56:00,
2013-02-28 01:01:00,31.8,7.8,30.20,NNW,347,0.0,0.0,36,0.00,,,0.00,0,Wunderground v.1.15,2013-02-28 08:01:00,
2013-02-28 01:06:00,32.0,7.4,30.20,NNW,347,0.0,0.0,35,0.00,,,0.00,0,Wunderground v.1.15,2013-02-28 08:06:00,
2013-02-28 01:11:00,32.1,7.5,30.20,NNW,347,0.0,0.0,35,0.00,,,0.00,0,Wunderground v.1.15,2013-02-28 08:11:00,
2013-02-28 01:16:00,32.2,7.6,30.19,NNW,347,0.0,0.0,35,0.00,,,0.00,0,Wunderground v.1.15,2013-02-28 08:16:00,
2013-02-28 01:21:00,32.2,7.6,30.20,NNW,346,0.0,0.0,35,0.00,,,0.00,0,Wunderground v.1.15,2013-02-28 08:21:00,
2013-02-28 01:31:00,32.5,7.2,30.20,NNW,347,0.0,0.0,34,0.00,,,0.00,0,Wunderground v.1.15,2013-02-28 08:31:00,
2013-02-28 01:41:00,33.5,7.4,30.18,NNW,347,0.0,1.0,33,0.00,,,0.00,0,Wunderground v.1.15,2013-02-28 08:41:00,
2013-02-28 01:46:00,34.1,8.0,30.18,NNW,347,0.0,1.0,33,0.00,,,0.00,0,Wunderground v.1.15,2013-02-28 08:46:00,
2013-02-28 01:51:00,34.1,7.3,30.19,NNW,346,0.0,0.0,32,0.00,,,0.00,0,Wunderground v.1.15,2013-02-28 08:51:00,
2013-02-28 02:01:00,33.6,7.5,30.18,NNW,346,0.0,0.0,33,0.00,,,0.00,0,Wunderground v.1.15,2013-02-28 09:01:00,
2013-02-28 02:06:00,33.3,7.2,30.18,NNW,347,0.0,0.0,33,0.00,,,0.00,0,Wunderground v.1.15,2013-02-28 09:06:00,
2013-02-28 02:16:00,32.9,6.9,30.17,NNW,347,0.0,0.0,33,0.00,,,0.00,0,Wunderground v.1.15,2013-02-28 09:16:00,
2013-02-28 02:21:00,32.5,7.2,30.17,NNW,346,0.0,0.0,34,0.00,,,0.00,0,Wunderground v.1.15,2013-02-28 09:21:00,
2013-02-28 02:26:00,32.1,6.8,30.18,NNW,347,0.0,0.0,34,0.00,,,0.00,0,Wunderground v.1.15,2013-02-28 09:26:00,
2013-02-28 02:36:00,31.3,6.8,30.18,NNW,347,0.0,0.0,35,0.00,,,0.00,0,Wunderground v.1.15,2013-02-28 09:36:00,
2013-02-28 02:46:00,31.3,7.4,30.17,NNW,347,0.0,0.0,36,0.00,,,0.00,0,Wunderground v.1.15,2013-02-28 09:46:00,
2013-02-28 02:56:00,32.4,7.1,30.17,NNW,346,1.0,1.0,34,0.00,,,0.00,0,Wunderground v.1.15,2013-02-28 09:56:00,
2013-02-28 03:01:00,32.4,7.1,30.17,NNW,347,1.0,1.0,34,0.00,,,0.00,0,Wunderground v.1.15,2013-02-28 10:01:00,
2013-02-28 03:06:00,32.1,7.5,30.16,NNW,347,0.0,1.0,35,0.00,,,0.00,0,Wunderground v.1.15,2013-02-28 10:06:00,
2013-02-28 03:11:00,32.1,7.5,30.16,NNW,346,0.0,0.0,35,0.00,,,0.00,0,Wunderground v.1.15,2013-02-28 10:11:00,
2013-02-28 03:16:00,31.9,7.3,30.16,NNW,347,0.0,0.0,35,0.00,,,0.00,0,Wunderground v.1.15,2013-02-28 10:16:00,
2013-02-28 03:21:00,31.8,7.2,30.16,NNW,346,0.0,0.0,35,0.00,,,0.00,0,Wunderground v.1.15,2013-02-28 10:21:00,
2013-02-28 03:26:00,31.9,7.3,30.16,NNW,347,0.0,1.0,35,0.00,,,0.00,0,Wunderground v.1.15,2013-02-28 10:26:00,
2013-02-28 03:31:00,31.8,7.2,30.16,NNW,347,0.0,0.0,35,0.00,,,0.00,0,Wunderground v.1.15,2013-02-28 10:31:00,
2013-02-28 03:41:00,31.0,7.1,30.16,NNW,346,0.0,0.0,36,0.00,,,0.00,0,Wunderground v.1.15,2013-02-28 10:41:00,
2013-02-28 03:46:00,30.5,7.3,30.16,NNW,347,0.0,0.0,37,0.00,,,0.00,0,Wunderground v.1.15,2013-02-28 10:46:00,
2013-02-28 03:51:00,30.1,7.5,30.16,NNW,346,0.0,0.0,38,0.00,,,0.00,0,Wunderground v.1.15,2013-02-28 10:51:00,
2013-02-28 03:56:00,30.1,7.5,30.17,NNW,347,0.0,0.0,38,0.00,,,0.00,0,Wunderground v.1.15,2013-02-28 10:56:00,
2013-02-28 04:01:00,30.1,7.5,30.17,NNW,347,0.0,0.0,38,0.00,,,0.00,0,Wunderground v.1.15,2013-02-28 11:01:00,
2013-02-28 04:06:00,30.2,7.6,30.17,NNW,347,0.0,0.0,38,0.00,,,0.00,0,Wunderground v.1.15,2013-02-28 11:06:00,
2013-02-28 04:16:00,29.6,7.1,30.17,NNW,347,0.0,0.0,38,0.00,,,0.00,0,Wunderground v.1.15,2013-02-28 11:16:00,
2013-02-28 04:26:00,29.8,7.2,30.18,NNW,346,0.0,0.0,38,0.00,,,0.00,0,Wunderground v.1.15,2013-02-28 11:26:00,
2013-02-28 04:31:00,30.3,7.7,30.18,NNW,347,0.0,0.0,38,0.00,,,0.00,0,Wunderground v.1.15,2013-02-28 11:31:00,
2013-02-28 04:36:00,30.7,7.5,30.17,NNW,347,1.0,1.0,37,0.00,,,0.00,0,Wunderground v.1.15,2013-02-28 11:36:00,
2013-02-28 04:46:00,30.6,7.4,30.17,NNW,346,1.0,4.0,37,0.00,,,0.00,0,Wunderground v.1.15,2013-02-28 11:46:00,
2013-02-28 04:51:00,30.2,7.6,30.18,NNW,347,1.0,1.0,38,0.00,,,0.00,0,Wunderground v.1.15,2013-02-28 11:51:00,
2013-02-28 04:56:00,30.2,7.6,30.19,NNW,346,0.0,1.0,38,0.00,,,0.00,0,Wunderground v.1.15,2013-02-28 11:56:00,
2013-02-28 05:01:00,30.2,7.6,30.19,NNW,347,0.0,0.0,38,0.00,,,0.00,0,Wunderground v.1.15,2013-02-28 12:01:00,
2013-02-28 05:06:00,30.2,7.6,30.20,NNW,347,0.0,0.0,38,0.00,,,0.00,0,Wunderground v.1.15,2013-02-28 12:06:00,
2013-02-28 05:16:00,27.5,5.7,30.21,NNW,346,0.0,0.0,39,0.00,,,0.00,0,Wunderground v.1.15,2013-02-28 12:16:00,
2013-02-28 05:26:00,26.9,7.4,30.22,NNW,347,0.0,0.0,43,0.00,,,0.00,0,Wunderground v.1.15,2013-02-28 12:26:00,
2013-02-28 05:31:00,28.3,7.6,30.22,NNW,347,0.0,0.0,41,0.00,,,0.00,0,Wunderground v.1.15,2013-02-28 12:31:00,
2013-02-28 05:36:00,29.2,7.8,30.22,NNW,346,0.0,0.0,40,0.00,,,0.00,0,Wunderground v.1.15,2013-02-28 12:36:00,
2013-02-28 05:41:00,29.5,7.5,30.22,NNW,347,0.0,0.0,39,0.00,,,0.00,0,Wunderground v.1.15,2013-02-28 12:41:00,
2013-02-28 05:51:00,29.9,7.9,30.22,NNW,347,1.0,1.0,39,0.00,,,0.00,0,Wunderground v.1.15,2013-02-28 12:51:00,
2013-02-28 05:56:00,30.3,7.7,30.22,NNW,347,1.0,1.0,38,0.00,,,0.00,0,Wunderground v.1.15,2013-02-28 12:56:00,
2013-02-28 06:01:00,30.5,7.9,30.22,NNW,347,0.0,0.0,38,0.00,,,0.00,0,Wunderground v.1.15,2013-02-28 13:01:00,
2013-02-28 06:06:00,30.5,7.9,30.25,NNW,346,0.0,0.0,38,0.00,,,0.00,0,Wunderground v.1.15,2013-02-28 13:06:00,
2013-02-28 06:16:00,30.7,7.5,30.26,NNW,347,1.0,1.0,37,0.00,,,0.00,0,Wunderground v.1.15,2013-02-28 13:16:00,
2013-02-28 06:26:00,25.5,5.6,30.29,NNW,347,0.0,0.0,42,0.00,,,0.00,0,Wunderground v.1.15,2013-02-28 13:26:00,
2013-02-28 06:31:00,24.7,6.3,30.28,NNW,347,0.0,0.0,45,0.00,,,0.00,0,Wunderground v.1.15,2013-02-28 13:31:00,
2013-02-28 06:36:00,23.8,4.5,30.30,NNW,347,0.0,0.0,43,0.00,,,0.00,0,Wunderground v.1.15,2013-02-28 13:36:00,
2013-02-28 06:41:00,22.5,5.3,30.31,NNW,347,0.0,0.0,47,0.00,,,0.00,0,Wunderground v.1.15,2013-02-28 13:41:00,
2013-02-28 06:46:00,22.4,5.6,30.31,NNW,346,0.0,0.0,48,0.00,,,0.00,0,Wunderground v.1.15,2013-02-28 13:46:00,
2013-02-28 06:56:00,27.2,7.6,30.28,NNW,346,0.0,0.0,43,0.00,,,0.00,12,Wunderground v.1.15,2013-02-28 13:56:00,
2013-02-28 07:01:00,25.9,6.4,30.30,NNW,347,0.0,0.0,43,0.00,,,0.00,16,Wunderground v.1.15,2013-02-28 14:01:00,
2013-02-28 07:11:00,28.9,8.1,30.32,NNW,346,0.0,0.0,41,0.00,,,0.00,25,Wunderground v.1.15,2013-02-28 14:11:00,
2013-02-28 07:16:00,30.7,8.6,30.31,NNW,347,0.0,0.0,39,0.00,,,0.00,35,Wunderground v.1.15,2013-02-28 14:16:00,
2013-02-28 07:21:00,32.0,8.6,30.31,NNW,347,0.0,0.0,37,0.00,,,0.00,46,Wunderground v.1.15,2013-02-28 14:21:00,
2013-02-28 07:26:00,30.8,8.1,30.32,NNW,347,0.0,0.0,38,0.00,,,0.00,62,Wunderground v.1.15,2013-02-28 14:26:00,
2013-02-28 07:31:00,32.3,9.5,30.32,NNW,347,0.0,0.0,38,0.00,,,0.00,79,Wunderground v.1.15,2013-02-28 14:31:00,
2013-02-28 07:36:00,34.4,9.5,30.31,NNW,347,0.0,0.0,35,0.00,,,0.00,95,Wunderground v.1.15,2013-02-28 14:36:00,
2013-02-28 07:41:00,35.7,10.0,30.30,NNW,346,0.0,0.0,34,0.00,,,0.00,118,Wunderground v.1.15,2013-02-28 14:41:00,
2013-02-28 07:46:00,36.6,9.5,30.30,NNW,346,0.0,0.0,32,0.00,,,0.00,141,Wunderground v.1.15,2013-02-28 14:46:00,
2013-02-28 07:51:00,37.4,10.2,30.30,NNW,347,0.0,0.0,32,0.00,,,0.00,163,Wunderground v.1.15,2013-02-28 14:51:00,
2013-02-28 08:01:00,38.7,9.9,30.30,NNW,347,1.0,1.0,30,0.00,,,0.00,211,Wunderground v.1.15,2013-02-28 15:01:00,
2013-02-28 08:06:00,39.3,10.4,30.31,NNW,347,1.0,4.0,30,0.00,,,0.00,232,Wunderground v.1.15,2013-02-28 15:06:00,
2013-02-28 08:11:00,39.7,10.0,30.31,NNW,346,2.0,3.0,29,0.00,,,0.00,253,Wunderground v.1.15,2013-02-28 15:11:00,
2013-02-28 08:16:00,40.1,10.3,30.31,NNW,347,3.0,5.0,29,0.00,,,0.00,274,Wunderground v.1.15,2013-02-28 15:16:00,
2013-02-28 08:26:00,40.7,10.1,30.30,NNW,334,6.0,7.0,28,0.00,,,0.00,313,Wunderground v.1.15,2013-02-28 15:26:00,
2013-02-28 08:31:00,41.2,9.7,30.30,NNW,328,7.0,7.0,27,0.00,,,0.00,334,Wunderground v.1.15,2013-02-28 15:31:00,
2013-02-28 08:36:00,41.8,10.2,30.31,NW,326,6.0,7.0,27,0.00,,,0.00,353,Wunderground v.1.15,2013-02-28 15:36:00,
2013-02-28 08:41:00,42.3,9.8,30.31,NW,324,5.0,5.0,26,0.00,,,0.00,369,Wunderground v.1.15,2013-02-28 15:41:00,
2013-02-28 08:51:00,42.8,10.2,30.30,NW,323,6.0,6.0,26,0.00,,,0.00,408,Wunderground v.1.15,2013-02-28 15:51:00,
2013-02-28 08:56:00,43.4,10.7,30.30,NW,326,5.0,6.0,26,0.00,,,0.00,427,Wunderground v.1.15,2013-02-28 15:56:00,
2013-02-28 09:06:00,43.7,10.1,30.30,NNW,332,6.0,7.0,25,0.00,,,0.00,464,Wunderground v.1.15,2013-02-28 16:06:00,
2013-02-28 09:16:00,44.4,10.7,30.30,NW,323,5.0,7.0,25,0.00,,,0.00,499,Wunderground v.1.15,2013-02-28 16:16:00,
2013-02-28 09:21:00,44.6,10.9,30.30,NW,324,6.0,8.0,25,0.00,,,0.00,513,Wunderground v.1.15,2013-02-28 16:21:00,
2013-02-28 09:31:00,45.8,11.0,30.30,NW,321,5.0,5.0,24,0.00,,,0.00,548,Wunderground v.1.15,2013-02-28 16:31:00,
2013-02-28 09:36:00,46.1,11.2,30.30,NW,321,5.0,5.0,24,0.00,,,0.00,566,Wunderground v.1.15,2013-02-28 16:36:00,
2013-02-28 09:46:00,46.7,10.8,30.30,NNW,327,5.0,8.0,23,0.00,,,0.00,598,Wunderground v.1.15,2013-02-28 16:46:00,
2013-02-28 09:56:00,48.1,11.0,30.29,NW,318,4.0,4.0,22,0.00,,,0.00,626,Wunderground v.1.15,2013-02-28 16:56:00,
2013-02-28 10:06:00,48.5,10.3,30.33,NW,323,3.0,6.0,21,0.00,,,0.00,656,Wunderground v.1.15,2013-02-28 17:06:00,
2013-02-28 10:11:00,49.2,10.9,30.33,NW,324,2.0,6.0,21,0.00,,,0.00,670,Wunderground v.1.15,2013-02-28 17:11:00,
2013-02-28 10:21:00,49.7,11.3,30.32,NW,324,3.0,4.0,21,0.00,,,0.00,696,Wunderground v.1.15,2013-02-28 17:21:00,
2013-02-28 10:31:00,51.0,11.3,30.32,NW,324,3.0,4.0,20,0.00,,,0.00,721,Wunderground v.1.15,2013-02-28 17:31:00,
2013-02-28 10:41:00,52.3,10.0,30.31,NNW,336,2.0,7.0,18,0.00,,,0.00,745,Wunderground v.1.15,2013-02-28 17:41:00,
2013-02-28 10:46:00,52.0,10.9,30.31,NNW,343,3.0,8.0,19,0.00,,,0.00,756,Wunderground v.1.15,2013-02-28 17:46:00,
2013-02-28 10:56:00,53.3,10.8,30.31,NNW,343,4.0,4.0,18,0.00,,,0.00,779,Wunderground v.1.15,2013-02-28 17:56:00,
2013-02-28 11:01:00,53.9,10.0,30.28,North,349,4.0,6.0,17,0.00,,,0.00,789,Wunderground v.1.15,2013-02-28 18:01:00,
2013-02-28 11:11:00,53.7,9.8,30.28,NNW,346,3.0,5.0,17,0.00,,,0.00,805,Wunderground v.1.15,2013-02-28 18:11:00,
2013-02-28 11:16:00,53.2,10.7,30.29,NNW,346,3.0,5.0,18,0.00,,,0.00,814,Wunderground v.1.15,2013-02-28 18:16:00,
2013-02-28 11:21:00,54.4,11.7,30.27,NNW,345,2.0,8.0,18,0.00,,,0.00,823,Wunderground v.1.15,2013-02-28 18:21:00,
2013-02-28 11:26:00,55.0,9.6,30.27,North,360,4.0,8.0,16,0.00,,,0.00,830,Wunderground v.1.15,2013-02-28 18:26:00,
2013-02-28 11:31:00,55.9,8.8,30.26,North,5,5.0,5.0,15,0.00,,,0.00,835,Wunderground v.1.15,2013-02-28 18:31:00,
2013-02-28 11:41:00,55.8,10.2,30.26,North,5,3.0,3.0,16,0.00,,,0.00,849,Wunderground v.1.15,2013-02-28 18:41:00,
2013-02-28 11:51:00,55.9,8.8,30.26,North,355,4.0,4.0,15,0.00,,,0.00,858,Wunderground v.1.15,2013-02-28 18:51:00,
2013-02-28 12:01:00,57.2,9.9,30.26,NNW,330,4.0,11.0,15,0.00,,,0.00,868,Wunderground v.1.15,2013-02-28 19:01:00,
2013-02-28 12:06:00,57.8,8.8,30.26,NNW,330,4.0,11.0,14,0.00,,,0.00,868,Wunderground v.1.15,2013-02-28 19:06:00,
2013-02-28 12:16:00,58.6,7.8,30.25,NNE,31,3.0,6.0,13,0.00,,,0.00,879,Wunderground v.1.15,2013-02-28 19:16:00,
2013-02-28 12:21:00,58.0,7.3,30.25,NNE,14,4.0,4.0,13,0.00,,,0.00,881,Wunderground v.1.15,2013-02-28 19:21:00,
2013-02-28 12:26:00,58.2,5.7,30.25,ENE,71,5.0,9.0,12,0.00,,,0.00,882,Wunderground v.1.15,2013-02-28 19:26:00,
2013-02-28 12:31:00,59.0,4.5,30.25,NNE,29,6.0,7.0,11,0.00,,,0.00,884,Wunderground v.1.15,2013-02-28 19:31:00,
2013-02-28 12:36:00,57.7,7.1,30.24,NE,35,5.0,7.0,13,0.00,,,0.00,884,Wunderground v.1.15,2013-02-28 19:36:00,
2013-02-28 12:41:00,58.5,6.0,30.24,ENE,60,3.0,5.0,12,0.00,,,0.00,886,Wunderground v.1.15,2013-02-28 19:41:00,
2013-02-28 12:51:00,59.5,8.5,30.24,ENE,58,5.0,6.0,13,0.00,,,0.00,882,Wunderground v.1.15,2013-02-28 19:51:00,
2013-02-28 13:01:00,59.9,7.1,30.21,ENE,58,7.0,7.0,12,0.00,,,0.00,879,Wunderground v.1.15,2013-02-28 20:01:00,
2013-02-28 13:06:00,60.6,7.6,30.21,East,84,6.0,7.0,12,0.00,,,0.00,877,Wunderground v.1.15,2013-02-28 20:06:00,
2013-02-28 13:16:00,60.0,7.2,30.21,North,10,8.0,11.0,12,0.00,,,0.00,872,Wunderground v.1.15,2013-02-28 20:16:00,
2013-02-28 13:21:00,59.9,5.2,30.20,NE,46,6.0,7.0,11,0.00,,,0.00,865,Wunderground v.1.15,2013-02-28 20:21:00,
2013-02-28 13:26:00,60.7,5.8,30.20,ENE,64,7.0,9.0,11,0.00,,,0.00,860,Wunderground v.1.15,2013-02-28 20:26:00,
2013-02-28 13:31:00,60.1,7.2,30.20,NE,37,6.0,9.0,12,0.00,,,0.00,856,Wunderground v.1.15,2013-02-28 20:31:00,
2013-02-28 13:36:00,60.9,5.9,30.20,NNE,32,5.0,9.0,11,0.00,,,0.00,851,Wunderground v.1.15,2013-02-28 20:36:00,
2013-02-28 13:46:00,60.0,5.2,30.20,NE,45,6.0,12.0,11,0.00,,,0.00,838,Wunderground v.1.15,2013-02-28 20:46:00,
2013-02-28 13:56:00,60.9,5.9,30.20,North,5,6.0,7.0,11,0.00,,,0.00,826,Wunderground v.1.15,2013-02-28 20:56:00,
2013-02-28 14:01:00,60.1,5.3,30.20,North,10,6.0,6.0,11,0.00,,,0.00,817,Wunderground v.1.15,2013-02-28 21:01:00,
2013-02-28 14:11:00,61.1,6.1,30.21,East,83,5.0,5.0,11,0.00,,,0.00,798,Wunderground v.1.15,2013-02-28 21:11:00,
2013-02-28 14:21:00,61.1,6.1,30.20,East,83,6.0,6.0,11,0.00,,,0.00,780,Wunderground v.1.15,2013-02-28 21:21:00,
2013-02-28 14:31:00,61.2,6.2,30.21,ENE,70,6.0,6.0,11,0.00,,,0.00,761,Wunderground v.1.15,2013-02-28 21:31:00,
2013-02-28 14:41:00,61.6,6.5,30.20,North,360,3.0,3.0,11,0.00,,,0.00,737,Wunderground v.1.15,2013-02-28 21:41:00,
2013-02-28 14:46:00,61.7,4.5,30.20,ENE,65,6.0,8.0,10,0.00,,,0.00,726,Wunderground v.1.15,2013-02-28 21:46:00,
2013-02-28 14:51:00,61.1,6.1,30.21,ENE,65,4.0,4.0,11,0.00,,,0.00,712,Wunderground v.1.15,2013-02-28 21:51:00,
2013-02-28 14:56:00,61.1,6.1,30.21,NE,56,4.0,4.0,11,0.00,,,0.00,701,Wunderground v.1.15,2013-02-28 21:56:00,
2013-02-28 15:01:00,61.3,6.3,30.21,ENE,76,6.0,7.0,11,0.00,,,0.00,689,Wunderground v.1.15,2013-02-28 22:01:00,
2013-02-28 15:11:00,61.5,6.4,30.21,NNW,343,6.0,6.0,11,0.00,,,0.00,659,Wunderground v.1.15,2013-02-28 22:11:00,
2013-02-28 15:21:00,62.2,4.9,30.20,ENE,61,4.0,4.0,10,0.00,,,0.00,629,Wunderground v.1.15,2013-02-28 22:21:00,
2013-02-28 15:31:00,62.1,4.8,30.20,ENE,61,6.0,9.0,10,0.00,,,0.00,599,Wunderground v.1.15,2013-02-28 22:31:00,
2013-02-28 15:41:00,61.6,4.4,30.20,East,85,6.0,6.0,10,0.00,,,0.00,570,Wunderground v.1.15,2013-02-28 22:41:00,
2013-02-28 15:51:00,61.9,4.6,30.19,North,360,5.0,8.0,10,0.00,,,0.00,538,Wunderground v.1.15,2013-02-28 22:51:00,
2013-02-28 16:01:00,62.2,2.6,30.19,NNE,22,4.0,7.0,9,0.00,,,0.00,499,Wunderground v.1.15,2013-02-28 23:01:00,
2013-02-28 16:11:00,62.0,2.4,30.20,NE,46,5.0,5.0,9,0.00,,,0.00,468,Wunderground v.1.15,2013-02-28 23:11:00,
2013-02-28 16:16:00,61.5,2.0,30.20,NE,50,6.0,6.0,9,0.00,,,0.00,446,Wunderground v.1.15,2013-02-28 23:16:00,
2013-02-28 16:21:00,61.1,1.7,30.20,ENE,67,5.0,5.0,9,0.00,,,0.00,427,Wunderground v.1.15,2013-02-28 23:21:00,
2013-02-28 16:31:00,61.7,2.2,30.20,NNE,16,4.0,4.0,9,0.00,,,0.00,392,Wunderground v.1.15,2013-02-28 23:31:00,
2013-02-28 16:36:00,61.8,2.3,30.20,NE,42,5.0,5.0,9,0.00,,,0.00,373,Wunderground v.1.15,2013-02-28 23:36:00,
2013-02-28 16:46:00,61.6,2.1,30.20,NE,49,4.0,6.0,9,0.00,,,0.00,330,Wunderground v.1.15,2013-02-28 23:46:00,
2013-02-28 16:56:00,61.1,-0.8,30.21,NNE,19,5.0,5.0,8,0.00,,,0.00,290,Wunderground v.1.15,2013-02-28 23:56:00,
2013-02-28 17:01:00,61.2,1.8,30.21,NNE,30,4.0,4.0,9,0.00,,,0.00,272,Wunderground v.1.15,2013-03-01 00:01:00,
2013-02-28 17:06:00,61.0,-0.9,30.20,NE,38,4.0,5.0,8,0.00,,,0.00,244,Wunderground v.1.15,2013-03-01 00:06:00,
2013-02-28 17:11:00,60.9,-0.9,30.20,North,10,4.0,7.0,8,0.00,,,0.00,220,Wunderground v.1.15,2013-03-01 00:11:00,
2013-02-28 17:21:00,60.1,1.0,30.22,NNE,19,5.0,5.0,9,0.00,,,0.00,174,Wunderground v.1.15,2013-03-01 00:21:00,
2013-02-28 17:31:00,59.8,0.7,30.21,NNE,20,3.0,3.0,9,0.00,,,0.00,125,Wunderground v.1.15,2013-03-01 00:31:00,
2013-02-28 17:41:00,59.0,2.4,30.21,NNE,20,2.0,2.0,10,0.00,,,0.00,83,Wunderground v.1.15,2013-03-01 00:41:00,
2013-02-28 17:46:00,59.0,2.4,30.21,NNE,20,1.0,2.0,10,0.00,,,0.00,65,Wunderground v.1.15,2013-03-01 00:46:00,
2013-02-28 17:51:00,58.5,2.0,30.21,NNE,20,1.0,1.0,10,0.00,,,0.00,47,Wunderground v.1.15,2013-03-01 00:51:00,
2013-02-28 17:56:00,58.1,3.8,30.22,NNE,20,0.0,1.0,11,0.00,,,0.00,33,Wunderground v.1.15,2013-03-01 00:56:00,
2013-02-28 18:01:00,57.3,3.1,30.22,NNE,20,0.0,0.0,11,0.00,,,0.00,18,Wunderground v.1.15,2013-03-01 01:01:00,
2013-02-28 18:06:00,56.0,2.1,30.25,NNE,20,0.0,0.0,11,0.00,,,0.00,14,Wunderground v.1.15,2013-03-01 01:06:00,
2013-02-28 18:16:00,54.2,2.6,30.26,NNE,20,0.0,0.0,12,0.00,,,0.00,7,Wunderground v.1.15,2013-03-01 01:16:00,
2013-02-28 18:26:00,51.9,2.5,30.28,NNE,20,0.0,0.0,13,0.00,,,0.00,0,Wunderground v.1.15,2013-03-01 01:26:00,
2013-02-28 18:31:00,51.7,2.3,30.28,NNE,20,0.0,0.0,13,0.00,,,0.00,0,Wunderground v.1.15,2013-03-01 01:31:00,
2013-02-28 18:41:00,50.8,3.2,30.29,NNE,20,0.0,0.0,14,0.00,,,0.00,0,Wunderground v.1.15,2013-03-01 01:41:00,
2013-02-28 18:51:00,49.8,2.4,30.30,NNE,20,0.0,0.0,14,0.00,,,0.00,0,Wunderground v.1.15,2013-03-01 01:51:00,
2013-02-28 18:56:00,49.7,2.3,30.30,NNE,20,0.0,0.0,14,0.00,,,0.00,0,Wunderground v.1.15,2013-03-01 01:56:00,
2013-02-28 19:01:00,49.3,2.0,30.31,NNE,20,0.0,0.0,14,0.00,,,0.00,0,Wunderground v.1.15,2013-03-01 02:01:00,
2013-02-28 19:06:00,48.8,3.1,30.25,NNE,20,0.0,0.0,15,0.00,,,0.00,0,Wunderground v.1.15,2013-03-01 02:06:00,
2013-02-28 19:16:00,47.7,2.2,30.26,NNE,20,0.0,0.0,15,0.00,,,0.00,0,Wunderground v.1.15,2013-03-01 02:16:00,
2013-02-28 19:21:00,46.7,1.4,30.27,NNE,20,0.0,0.0,15,0.00,,,0.00,0,Wunderground v.1.15,2013-03-01 02:21:00,
2013-02-28 19:26:00,46.1,2.3,30.28,NNE,20,0.0,0.0,16,0.00,,,0.00,0,Wunderground v.1.15,2013-03-01 02:26:00,
2013-02-28 19:31:00,45.0,1.4,30.28,NNE,20,0.0,0.0,16,0.00,,,0.00,0,Wunderground v.1.15,2013-03-01 02:31:00,
2013-02-28 19:41:00,42.1,1.6,30.31,NNE,20,0.0,0.0,18,0.00,,,0.00,0,Wunderground v.1.15,2013-03-01 02:41:00,
2013-02-28 19:46:00,42.4,1.8,30.31,NNE,20,0.0,0.0,18,0.00,,,0.00,0,Wunderground v.1.15,2013-03-01 02:46:00,
2013-02-28 19:51:00,42.1,1.6,30.31,NNE,20,0.0,0.0,18,0.00,,,0.00,0,Wunderground v.1.15,2013-03-01 02:51:00,
2013-02-28 19:56:00,42.4,1.8,30.31,NNE,20,0.0,0.0,18,0.00,,,0.00,0,Wunderground v.1.15,2013-03-01 02:56:00,
2013-02-28 20:06:00,43.1,2.4,30.28,NNE,20,0.0,0.0,18,0.00,,,0.00,0,Wunderground v.1.15,2013-03-01 03:06:00,
2013-02-28 20:11:00,43.3,2.6,30.28,NNE,20,0.0,0.0,18,0.00,,,0.00,0,Wunderground v.1.15,2013-03-01 03:11:00,
2013-02-28 20:16:00,43.1,2.4,30.28,NNE,20,0.0,0.0,18,0.00,,,0.00,0,Wunderground v.1.15,2013-03-01 03:16:00,
2013-02-28 20:26:00,42.6,3.1,30.28,NNE,20,0.0,2.0,19,0.00,,,0.00,0,Wunderground v.1.15,2013-03-01 03:26:00,
2013-02-28 20:36:00,42.6,3.1,30.29,NNE,20,0.0,0.0,19,0.00,,,0.00,0,Wunderground v.1.15,2013-03-01 03:36:00,
2013-02-28 20:46:00,42.3,2.9,30.29,NNE,20,0.0,0.0,19,0.00,,,0.00,0,Wunderground v.1.15,2013-03-01 03:46:00,
2013-02-28 20:51:00,42.0,3.8,30.29,NNE,20,0.0,0.0,20,0.00,,,0.00,0,Wunderground v.1.15,2013-03-01 03:51:00,
2013-02-28 20:56:00,41.8,3.6,30.29,NNE,20,0.0,0.0,20,0.00,,,0.00,0,Wunderground v.1.15,2013-03-01 03:56:00,
2013-02-28 21:01:00,41.6,3.4,30.30,NNE,20,0.0,0.0,20,0.00,,,0.00,0,Wunderground v.1.15,2013-03-01 04:01:00,
2013-02-28 21:06:00,41.6,3.4,30.28,NNE,20,0.0,1.0,20,0.00,,,0.00,0,Wunderground v.1.15,2013-03-01 04:06:00,
2013-02-28 21:11:00,41.6,3.4,30.28,NNE,20,0.0,0.0,20,0.00,,,0.00,0,Wunderground v.1.15,2013-03-01 04:11:00,
2013-02-28 21:16:00,41.6,3.4,30.29,NNE,20,0.0,0.0,20,0.00,,,0.00,0,Wunderground v.1.15,2013-03-01 04:16:00,
2013-02-28 21:21:00,41.7,3.5,30.29,NNE,20,0.0,0.0,20,0.00,,,0.00,0,Wunderground v.1.15,2013-03-01 04:21:00,
2013-02-28 21:26:00,41.8,3.6,30.29,NNE,20,0.0,0.0,20,0.00,,,0.00,0,Wunderground v.1.15,2013-03-01 04:26:00,
2013-02-28 21:31:00,42.2,2.8,30.29,NNE,20,0.0,0.0,19,0.00,,,0.00,0,Wunderground v.1.15,2013-03-01 04:31:00,
2013-02-28 21:36:00,42.3,2.9,30.29,NNE,20,1.0,1.0,19,0.00,,,0.00,0,Wunderground v.1.15,2013-03-01 04:36:00,
2013-02-28 21:46:00,42.3,2.9,30.29,NNE,20,1.0,1.0,19,0.00,,,0.00,0,Wunderground v.1.15,2013-03-01 04:46:00,
2013-02-28 21:51:00,41.9,3.7,30.29,NNE,20,0.0,0.0,20,0.00,,,0.00,0,Wunderground v.1.15,2013-03-01 04:51:00,
2013-02-28 22:01:00,41.2,4.1,30.30,NNE,20,0.0,0.0,21,0.00,,,0.00,0,Wunderground v.1.15,2013-03-01 05:01:00,
2013-02-28 22:06:00,40.9,3.9,30.28,NNE,20,0.0,0.0,21,0.00,,,0.00,0,Wunderground v.1.15,2013-03-01 05:06:00,
2013-02-28 22:11:00,40.8,3.8,30.28,NNE,20,0.0,0.0,21,0.00,,,0.00,0,Wunderground v.1.15,2013-03-01 05:11:00,
2013-02-28 22:21:00,40.0,3.1,30.28,NNE,20,0.0,0.0,21,0.00,,,0.00,0,Wunderground v.1.15,2013-03-01 05:21:00,
2013-02-28 22:31:00,40.3,4.4,30.29,NNE,20,0.0,0.0,22,0.00,,,0.00,0,Wunderground v.1.15,2013-03-01 05:31:00,
2013-02-28 22:36:00,39.8,4.0,30.30,NNE,20,0.0,0.0,22,0.00,,,0.00,0,Wunderground v.1.15,2013-03-01 05:36:00,
2013-02-28 22:41:00,39.3,3.6,30.31,NNE,20,0.0,0.0,22,0.00,,,0.00,0,Wunderground v.1.15,2013-03-01 05:41:00,
2013-02-28 22:51:00,36.5,3.1,30.32,NNE,20,0.0,0.0,24,0.00,,,0.00,0,Wunderground v.1.15,2013-03-01 05:51:00,
2013-02-28 23:01:00,34.7,3.2,30.33,NNE,20,0.0,0.0,26,0.00,,,0.00,0,Wunderground v.1.15,2013-03-01 06:01:00,
2013-02-28 23:06:00,33.4,1.3,30.32,NNE,20,0.0,0.0,25,0.00,,,0.00,0,Wunderground v.1.15,2013-03-01 06:06:00,
2013-02-28 23:11:00,31.7,1.5,30.33,NNE,20,0.0,0.0,27,0.00,,,0.00,0,Wunderground v.1.15,2013-03-01 06:11:00,
2013-02-28 23:21:00,33.4,4.5,30.33,NNE,20,0.0,0.0,29,0.00,,,0.00,0,Wunderground v.1.15,2013-03-01 06:21:00,
2013-02-28 23:26:00,34.4,5.4,30.33,NNE,20,0.0,0.0,29,0.00,,,0.00,0,Wunderground v.1.15,2013-03-01 06:26:00,
2013-02-28 23:31:00,33.5,4.6,30.33,NNE,20,0.0,0.0,29,0.00,,,0.00,0,Wunderground v.1.15,2013-03-01 06:31:00,
2013-02-28 23:36:00,33.1,2.7,30.32,NNE,20,0.0,0.0,27,0.00,,,0.00,0,Wunderground v.1.15,2013-03-01 06:36:00,
2013-02-28 23:41:00,31.2,3.3,30.33,NNE,20,0.0,0.0,30,0.00,,,0.00,0,Wunderground v.1.15,2013-03-01 06:41:00,
2013-02-28 23:46:00,30.9,3.8,30.33,NNE,20,0.0,0.0,31,0.00,,,0.00,0,Wunderground v.1.15,2013-03-01 06:46:00,
2013-02-28 23:51:00,31.0,3.8,30.33,NNE,20,0.0,0.0,31,0.00,,,0.00,0,Wunderground v.1.15,2013-03-01 06:51:00,
2013-02-28 23:56:00,30.1,3.1,30.34,NNE,20,0.0,0.0,31,0.00,,,0.00,0,Wunderground v.1.15,2013-03-01 06:56:00,